Probability
0 0 0 0 0 0 0 0 0 0 0 0 0 0 0 0 0 0 0 0 0 0 0 0 0 0 0 0 0 0 0 0 0 0 0 0 0 0 0 0 0 0 0
0 0 0 0 0 0 0 0 1 1 1 0 0 0 0 0 0 0 0 0 0 0 0 0 0 0 0 0 0 0 0 0 0 0 1 1 0 0 0 0 0 1 1
0 0 0 0 0 0 0 0 1 2 2 1 0 0 0 0 0 0 0 0 0 0 0 0 0 1 1 0 0 0 0 0 0 1 2 2 1 1 1 0 0 1 2
0 0 0 0 0 0 0 0 1 2 2 1 0 0 0 0 0 0 0 0 0 0 0 1 1 2 2 1 0 0 0 0 0 1 2 3 3 2 2 1 1 1 1
0 0 0 0 0 0 0 0 0 1 1 0 0 0 0 0 0 0 0 0 0 0 0 1 2 3 3 2 1 0 0 0 0 0 1 2 3 3 3 3 2 2 1
0 0 0 0 0 0 0 0 0 0 1 0 0 0 0 0 0 0 0 0 0 0 0 1 1 2 3 3 2 1 0 0 0 0 0 1 2 3 3 3 3 3 3
0 1 1 0 0 0 0 0 0 0 0 0 0 0 0 0 0 0 0 0 0 0 0 0 0 1 1 2 2 1 0 0 0 0 0 0 1 2 2 2 2 2 2
1 1 1 0 0 0 0 0 0 0 0 0 0 0 0 0 0 0 0 0 0 0 0 0 0 0 0 1 1 0 0 0 0 0 0 0 0 1 1 1 1 1 1
0 1 1 0 0 0 0 0 0 0 0 0 0 0 0 0 0 0 0 0 0 0 0 0 0 0 0 1 1 1 1 0 0 0 0 0 0 0 0 0 0 0 0
0 0 0 0 0 0 0 0 0 0 0 0 0 0 0 0 0 0 0 0 0 0 0 0 0 0 0 1 1 2 1 0 0 1 0 0 0 0 0 0 0 0 0
0 0 0 0 0 0 0 0 0 0 0 0 0 0 0 0 0 0 0 0 0 0 0 0 0 0 0 0 1 1 1 0 0 0 0 0 0 0 0 0 0 0 0
0 0 0 0 0 0 0 0 0 0 0 0 0 0 0 0 0 0 0 0 0 0 0 0 0 0 0 0 0 0 0 0 0 0 0 0 0 0 0 0 0 0 0
0 0 0 0 0 0 0 0 0 0 1 1 1 1 1 1 0 0 0 0 0 0 0 0 0 0 0 0 0 0 0 0 0 0 0 0 0 0 0 0 0 0 0
0 0 0 0 0 0 0 0 0 0 1 2 2 2 2 2 1 1 0 0 0 0 0 0 0 0 0 0 0 0 0 0 0 0 0 0 0 0 0 0 0 0 0
0 0 0 0 0 0 0 0 0 0 0 1 1 2 2 2 2 1 1 0 0 0 0 0 0 0 0 0 0 0 0 0 0 0 0 0 0 0 0 0 0 0 0
0 0 0 0 0 0 0 0 0 0 0 0 0 1 1 1 1 1 1 0 0 0 0 0 0 0 0 0 0 0 0 0 0 0 0 0 0 0 0 0 0 0 0
0 0 0 0 0 0 0 0 0 0 0 0 0 0 0 0 0 0 0 0 0 0 0 0 0 0 0 0 0 0 0 0 0 0 0 0 0 0 0 0 0 0 0
0 0 0 0 0 0 0 0 0 0 0 0 0 0 0 0 0 0 0 0 0 0 0 0 0 0 0 0 0 0 0 0 0 0 0 0 0 0 0 0 0 0 0
0 0 0 0 0 0 0 0 0 0 0 0 0 0 0 0 0 0 0 0 0 0 0 0 0 0 0 0 0 0 0 0 0 0 0 0 0 0 0 0 0 0 0
0 0 0 0 0 0 0 0 0 0 0 0 0 0 0 0 0 0 0 0 0 0 0 0 0 0 0 0 0 0 0 0 0 0 0 0 0 0 0 0 0 0 0
0 0 0 0 0 0 0 0 0 0 0 0 0 0 0 0 0 0 0 0 0 0 0 0 0 0 0 0 0 0 0 0 0 0 0 0 0 0 0 0 0 0 0
0 0 0 0 0 0 0 0 0 0 0 1 1 1 0 0 0 0 0 0 0 0 0 0 0 0 0 0 0 0 0 0 0 0 0 0 0 0 0 0 0 0 0
0 0 0 0 0 0 0 0 1 1 1 2 2 1 0 0 0 0 0 0 0 0 0 0 0 0 0 0 0 0 0 0 0 0 0 0 0 0 0 0 0 0 0
0 0 0 0 0 0 1 1 2 2 2 2 1 1 0 0 0 0 0 0 0 0 0 0 0 0 0 0 0 0 0 0 0 0 0 0 0 0 0 0 0 0 0
0 0 0 0 0 1 2 2 2 2 2 1 1 1 0 0 0 0 0 0 0 0 0 0 0 0 0 0 0 0 0 0 0 0 0 0 0 0 0 0 0 0 0
0 0 0 0 0 1 2 2 1 1 1 0 0 1 0 0 0 0 0 0 0 0 0 0 0 0 0 0 0 0 0 0 0 0 0 0 0 0 0 0 0 0 0
Wind_Speed
7 7 7 7 6 6 6 6 6 6 5 3 3 3 3 2 2 2 3 3 2 2 2 2 2 2 2 2 3 3 4 3 2 2 2 2 2 3 2 2 2 3 3
7 7 7 7 7 7 7 7 6 6 6 4 3 2 2 2 2 2 2 2 2 2 1 2 2 2 2 3 3 3 2 2 1 1 1 2 3 2 2 1 1 2 2
7 8 8 8 8 8 8 6 7 7 6 6 4 3 3 3 3 3 2 2 2 2 1 1 1 2 2 2 3 3 3 2 1 1 2 1 1 2 2 2 1 1 1
7 7 7 8 8 8 7 8 7 7 7 7 5 5 4 3 3 2 3 3 3 2 2 2 2 2 1 2 3 3 2 2 2 1 1 2 1 1 2 2 2 1 1
7 7 6 7 7 7 7 7 7 7 7 7 6 6 4 3 3 3 3 3 3 2 2 2 2 2 2 2 2 2 3 2 2 1 1 1 1 2 2 1 2 2 1
7 6 6 6 6 6 6 6 7 7 7 7 7 7 6 5 4 4 3 3 2 2 3 2 2 2 2 2 2 2 3 2 2 2 1 1 1 2 1 2 2 1 1
6 6 6 6 6 7 7 7 7 7 7 8 8 7 7 6 6 5 4 4 3 3 3 3 3 2 2 2 2 2 3 3 3 2 2 1 2 2 2 2 2 2 2
5 5 6 6 6 7 7 7 8 7 7 8 8 7 7 5 4 5 4 4 3 3 3 3 3 3 3 3 3 2 3 3 3 2 2 2 1 1 2 2 2 2 2
4 4 4 5 5 6 7 7 8 7 7 8 7 7 7 6 5 6 5 3 3 3 4 4 3 3 4 4 3 3 3 2 2 2 2 2 2 2 2 2 2 3 2
4 4 4 4 4 5 5 6 6 6 7 7 6 5 7 7 6 5 6 5 5 4 4 4 4 4 4 4 4 3 3 3 2 2 2 2 2 1 1 2 2 3 3
3 4 3 4 4 4 5 5 5 5 5 6 6 6 7 6 6 6 6 5 5 5 5 5 4 4 4 5 4 4 4 4 4 4 4 3 2 2 2 2 2 2 3
3 3 3 4 3 3 4 4 4 4 4 5 5 6 6 6 7 7 6 6 5 5 5 5 5 5 5 5 5 5 5 5 5 4 4 4 3 3 3 2 3 3 3
3 3 3 3 3 3 3 4 4 4 4 5 5 5 6 6 6 6 6 6 6 6 6 6 6 5 5 5 5 6 5 5 5 5 5 4 4 4 3 4 3 3 3
3 3 3 3 3 3 3 3 3 4 4 5 5 5 5 5 5 5 5 6 6 7 7 6 6 6 6 6 6 6 5 5 5 5 5 5 5 5 4 4 4 3 3
3 3 3 2 3 3 3 3 3 4 4 5 5 5 5 5 5 5 5 5 5 6 6 6 6 6 5 5 6 6 6 6 5 5 5 5 3 3 3 3 4 4 4
2 3 3 3 3 3 3 3 3 3 4 5 5 4 5 4 5 5 5 5 5 6 5 6 6 6 5 4 5 6 6 6 6 6 5 5 5 5 6 6 5 5 5
2 3 3 3 3 3 3 3 3 3 4 4 4 4 4 5 5 5 5 5 5 5 5 6 6 6 5 6 6 7 7 6 6 6 5 4 4 5 6 7 9 8 7
3 3 3 3 3 3 2 3 3 3 4 4 4 4 4 4 5 5 5 5 5 5 5 5 5 5 4 6 7 7 8 6 6 6 6 6 6 5 5 5 5 5 5
4 4 3 3 3 2 2 3 3 3 3 3 4 5 5 4 5 5 5 5 5 5 5 5 5 5 5 6 7 7 6 6 6 6 5 6 6 3 5 6 6 5 4
3 3 3 2 2 1 2 3 3 3 4 4 4 4 4 5 5 5 5 4 4 5 4 4 5 5 5 5 6 7 5 5 5 4 5 4 5 3 5 6 6 6 5
3 3 2 2 2 1 2 3 3 4 4 3 4 4 4 5 5 5 4 4 4 4 4 4 4 5 4 5 6 7 5 5 5 4 4 3 4 5 5 6 5 4 4
4 3 2 2 2 2 3 3 4 3 3 3 3 4 4 4 4 4 4 4 4 4 4 4 4 3 3 4 5 6 6 5 5 4 3 3 4 5 6 5 4 4 5
4 3 3 2 2 2 3 4 3 3 3 3 3 3 4 4 4 4 4 4 4 4 4 4 3 3 2 3 5 6 6 5 4 3 2 2 3 5 5 6 6 6 5
4 3 3 3 3 3 3 4 3 2 3 3 3 3 3 4 4 3 4 4 4 4 4 4 4 3 3 3 3 3 4 4 4 3 3 3 4 4 3 4 5 5 4
4 3 3 4 4 4 3 3 3 3 3 3 3 3 3 3 3 3 2 4 3 3 4 4 4 4 4 3 3 3 3 3 3 3 3 4 4 4 4 4 4 4 4
5 4 4 4 4 4 3 3 3 4 4 3 3 2 2 2 3 3 2 0 1 0 1 2 3 3 2 3 4 4 3 3 3 3 4 4 4 5 5 5 4 4 4
Wind_Direction
193 187 187 187 188 187 182 168 172 167 159 160 166 159 148 147 128 110 104 108 100 103 109 128 126 136 134 142 145 137 131 126 127 131 117 106 87 73 74 56 60 72 62
187 179 188 188 192 189 191 183 181 175 171 170 167 162 147 150 125 126 129 129 121 108 117 144 139 144 146 160 157 153 152 139 187 222 195 164 149 127 98 82 65 73 80
194 183 187 187 190 191 192 191 188 182 180 173 165 156 149 162 156 150 148 150 138 134 141 136 141 153 171 171 177 175 185 176 182 283 282 262 122 133 135 105 103 79 63
197 188 187 189 193 193 192 195 189 187 182 177 181 181 186 180 167 160 155 167 167 157 166 174 176 171 167 174 189 188 198 205 188 175 294 326 360 260 155 150 125 108 71
193 190 191 193 192 187 190 196 190 190 187 189 188 202 203 187 171 173 169 178 165 176 183 196 200 194 188 189 188 193 213 221 221 210 189 173 218 261 265 194 177 165 147
191 190 185 185 185 180 183 189 193 191 190 197 198 207 202 196 189 193 183 186 177 188 189 204 214 209 201 198 200 201 212 231 224 231 225 229 243 247 257 245 217 196 151
185 185 183 182 180 180 181 187 191 192 194 202 207 208 207 205 205 203 197 200 194 197 192 205 213 214 212 207 206 209 213 217 225 236 249 254 268 273 277 266 256 237 190
179 182 183 183 180 181 184 189 193 196 197 208 211 210 208 212 213 212 211 212 210 203 195 208 215 212 212 209 206 225 224 229 224 235 242 249 258 257 254 258 258 247 211
172 177 178 183 182 183 186 192 193 196 201 208 212 213 210 212 213 216 212 216 216 209 210 209 216 214 215 220 215 221 217 223 226 223 221 230 231 233 246 244 255 273 265
174 174 175 183 184 183 183 193 199 200 202 208 212 214 214 211 213 217 212 212 214 210 212 215 217 218 214 212 217 227 227 217 208 221 227 225 221 220 224 236 254 269 277
183 175 170 176 179 176 176 188 196 201 204 209 211 210 213 212 211 217 218 219 217 214 217 220 225 223 217 211 208 218 215 216 208 205 208 211 213 216 218 222 234 246 258
178 170 167 165 167 176 180 189 197 199 203 209 211 214 213 213 215 217 217 216 218 219 225 225 228 225 222 220 215 212 214 216 218 215 214 215 206 217 224 226 229 227 242
163 166 169 173 177 187 188 198 208 208 203 205 210 210 211 214 218 217 217 218 219 221 222 224 228 225 222 218 221 219 217 217 222 225 225 225 218 220 218 228 237 233 229
168 172 179 185 195 201 198 203 214 212 206 205 210 215 215 214 218 217 217 221 222 226 226 226 226 227 224 220 219 220 223 224 226 230 231 234 232 231 229 229 235 232 223
190 189 195 198 212 211 208 211 217 215 209 211 216 221 222 216 217 216 220 224 226 231 230 230 229 225 224 225 224 219 224 228 229 230 231 234 248 283 263 253 238 229 228
244 223 216 215 221 220 218 218 217 217 217 218 221 221 222 216 215 218 220 225 226 228 228 230 230 225 223 204 225 239 227 230 230 232 231 221 217 215 218 235 250 258 247
279 259 241 234 232 230 223 220 217 215 217 219 219 213 214 212 214 216 219 221 223 223 226 227 227 227 215 191 207 229 240 237 237 235 233 230 226 225 226 213 214 227 239
295 277 262 252 248 237 224 223 219 215 218 220 221 216 215 216 215 214 216 222 224 220 223 227 227 230 218 195 205 217 233 238 238 237 238 234 231 228 239 235 229 232 228
296 287 273 259 247 241 232 222 223 222 225 228 230 221 215 215 217 214 215 219 223 224 224 226 226 224 215 195 201 216 227 231 233 234 239 245 242 213 225 234 235 233 228
312 306 294 270 243 223 223 225 227 229 234 240 246 229 217 212 215 219 218 215 215 218 222 224 226 223 223 190 195 217 228 231 231 231 229 234 245 218 218 228 234 239 238
330 332 315 287 267 223 205 224 235 244 250 249 247 235 224 220 220 218 216 212 209 210 216 219 223 223 222 193 193 212 234 232 231 230 230 222 196 214 226 239 241 245 254
333 333 319 306 285 244 222 236 249 260 257 246 242 238 229 218 213 211 213 212 206 205 212 216 220 225 214 208 193 203 230 253 243 243 240 221 192 210 223 228 227 228 241
323 322 312 307 292 259 244 247 261 265 250 240 238 237 231 218 212 206 205 207 206 212 215 215 220 218 218 193 189 200 212 230 246 252 258 244 218 217 217 209 213 219 228
318 315 306 303 304 293 266 260 262 247 239 238 242 237 231 223 216 208 204 206 209 214 215 215 218 218 215 213 203 201 202 204 222 231 210 210 229 235 228 215 216 226 230
304 300 296 299 300 299 285 270 258 242 240 243 243 242 239 229 218 207 220 224 224 233 227 224 219 218 222 211 196 218 220 220 223 223 225 226 221 229 226 222 224 225 222
296 290 290 294 298 301 297 290 270 251 246 248 248 243 240 229 220 210 206 19 257 160 250 273 252 235 224 168 181 202 211 211 198 219 228 231 233 237 236 230 228 227 227